N1VL Weather Reports


Display with metric or nautical units.
time (UTC)temp
F
wind
direction
speed
MPH
gust
MPH
rain 1hr
in
rain 24hr
in
rain mn
in
humidity
%
barometer
mb
20260503191802 74 83 7.0 11.0 0.00 0.00 0.00 22 1016.6
20260503190902 73 105 6.0 11.0 0.00 0.00 0.00 22 1016.7
20260503190024 73 96 7.0 13.0 0.00 0.00 0.00 21 1016.8
20260503185402 73 84 5.0 12.0 0.00 0.00 0.00 21 1016.9
20260503184502 72 112 5.0 8.0 0.00 0.00 0.00 22 1017.1
20260503183602 71 101 5.0 9.0 0.00 0.00 0.00 24 1017.3
20260503182703 69 110 5.0 9.0 0.00 0.00 0.00 24 1017.5
20260503181802 69 104 5.0 9.0 0.00 0.00 0.00 25 1017.6
20260503180902 68 104 5.0 9.0 0.00 0.00 0.00 25 1017.6
20260503180002 68 120 5.0 9.0 0.00 0.00 0.00 25 1017.7
20260503175402 68 113 5.0 9.0 0.00 0.00 0.00 27 1017.8
20260503174502 67 106 5.0 8.0 0.00 0.00 0.00 27 1017.9
20260503173623 66 112 5.0 8.0 0.00 0.00 0.00 26 1018.0
20260503172702 67 102 5.0 8.0 0.00 0.00 0.00 27 1018.1
20260503171802 67 116 5.0 8.0 0.00 0.00 0.00 27 1018.2
20260503170923 67 115 4.0 9.0 0.00 0.00 0.00 29 1018.3
20260503150902 57 152 2.0 5.0 0.00 0.00 0.00 47 1019.0
20260503130902 45 128 1.0 2.0 0.00 0.00 0.00 58 1018.3
20260503080935 52 61 1.0 2.0 0.00 0.00 0.00 36 1018.8
20260503072723 54 44 2.0 6.0 0.00 0.00 0.00 33 1018.8
20260503071802 54 48 3.0 5.0 0.00 0.00 0.00 34 1018.8
20260503070923 54 51 3.0 5.0 0.00 0.00 0.00 33 1018.8
20260503054523 58 14 5.0 7.0 0.00 0.00 0.00 32 1018.5
20260503053602 58 57 4.0 7.0 0.00 0.00 0.00 34 1018.5
20260503052702 58 26 4.0 8.0 0.00 0.00 0.00 35 1018.4
20260503051802 58 290 6.0 9.0 0.00 0.00 0.00 34 1018.3
20260503050902 59 282 7.0 10.0 0.00 0.00 0.00 34 1018.2
20260503050003 59 283 8.0 12.0 0.00 0.00 0.00 33 1018.2
20260503045402 59 279 9.0 13.0 0.00 0.00 0.00 33 1018.2
20260503044502 60 278 9.0 12.0 0.00 0.00 0.00 32 1018.3
20260503043614 61 274 10.0 14.0 0.00 0.00 0.00 30 1018.3
20260503042702 61 274 9.0 13.0 0.00 0.00 0.00 29 1018.3
20260503041823 62 276 10.0 16.0 0.00 0.00 0.00 30 1018.3
20260503040903 62 274 11.0 16.0 0.00 0.00 0.00 29 1018.3
20260503040002 62 276 10.0 14.0 0.00 0.00 0.00 29 1018.1
20260503035403 61 278 10.0 14.0 0.00 0.00 0.00 30 1018.1
20260503034502 62 276 10.0 15.0 0.00 0.00 0.00 29 1018.1
20260503033602 63 271 12.0 18.0 0.00 0.00 0.00 28 1018.0
20260503032702 63 271 12.0 16.0 0.00 0.00 0.00 28 1018.0
20260503031802 62 277 11.0 15.0 0.00 0.00 0.00 29 1018.0
20260503030902 63 278 11.0 14.0 0.00 0.00 0.00 29 1017.8
20260503030003 62 280 10.0 13.0 0.00 0.00 0.00 30 1017.8
20260503025402 63 279 10.0 16.0 0.00 0.00 0.00 29 1017.8
20260503024503 65 274 11.0 16.0 0.00 0.00 0.00 28 1017.7
20260503023623 65 266 10.0 16.0 0.00 0.00 0.00 26 1017.8
20260503022702 65 259 7.0 12.0 0.00 0.00 0.00 27 1017.8
20260503021802 66 263 8.0 12.0 0.00 0.00 0.00 26 1017.8
20260503020902 66 265 9.0 15.0 0.00 0.00 0.00 26 1017.8
20260503020002 67 271 10.0 16.0 0.00 0.00 0.00 25 1017.8
20260503015402 67 272 9.0 14.0 0.00 0.00 0.00 25 1017.8
20260503014503 68 271 6.0 14.0 0.00 0.00 0.00 24 1017.8
20260503013602 70 251 1.0 5.0 0.00 0.00 0.00 23 1017.7
20260503012703 70 128 1.0 6.0 0.00 0.00 0.00 23 1017.6
20260503011802 71 128 2.0 6.0 0.00 0.00 0.00 21 1017.6
20260503010902 71 133 5.0 7.0 0.00 0.00 0.00 19 1017.6
20260503010002 72 132 5.0 8.0 0.00 0.00 0.00 18 1017.5
20260503005402 72 125 5.0 8.0 0.00 0.00 0.00 18 1017.6
20260503004503 74 124 5.0 9.0 0.00 0.00 0.00 18 1017.6
20260503003602 74 110 4.0 8.0 0.00 0.00 0.00 17 1017.6
20260503002724 74 81 4.0 9.0 0.00 0.00 0.00 16 1017.6
20260503001802 74 83 5.0 10.0 0.00 0.00 0.00 16 1017.7
20260503000923 74 94 7.0 12.0 0.00 0.00 0.00 17 1017.6
20260503000003 74 93 7.0 12.0 0.00 0.00 0.00 18 1017.7
20260502235402 74 89 6.0 12.0 0.00 0.00 0.00 17 1017.7
20260502234502 75 84 7.0 12.0 0.00 0.00 0.00 16 1017.8
20260502233602 75 81 5.0 10.0 0.00 0.00 0.00 17 1017.9
20260502232702 74 92 6.0 10.0 0.00 0.00 0.00 17 1018.0
20260502231823 75 59 6.0 11.0 0.00 0.00 0.00 17 1018.1
20260502230902 76 29 5.0 10.0 0.00 0.00 0.00 17 1018.2
20260502230003 76 65 5.0 10.0 0.00 0.00 0.00 17 1018.3
20260502225403 76 49 5.0 9.0 0.00 0.00 0.00 17 1018.3
20260502224502 75 46 6.0 10.0 0.00 0.00 0.00 17 1018.6
20260502223602 74 77 5.0 11.0 0.00 0.00 0.00 18 1018.8
20260502222703 74 96 4.0 9.0 0.00 0.00 0.00 18 1018.9
20260502221823 74 51 4.0 9.0 0.00 0.00 0.00 18 1019.1
20260502220902 74 81 6.0 11.0 0.00 0.00 0.00 18 1019.2
20260502220003 74 106 6.0 11.0 0.00 0.00 0.00 18 1019.4
20260502215403 73 98 5.0 11.0 0.00 0.00 0.00 19 1019.6
20260502214503 73 86 6.0 12.0 0.00 0.00 0.00 17 1019.8
20260502213602 74 65 7.0 11.0 0.00 0.00 0.00 18 1020.0
20260502212723 74 73 6.0 12.0 0.00 0.00 0.00 17 1020.2
20260502211802 74 105 4.0 9.0 0.00 0.00 0.00 18 1020.2
20260502210902 74 78 5.0 11.0 0.00 0.00 0.00 17 1020.5
20260502210003 73 82 5.0 11.0 0.00 0.00 0.00 18 1020.7
20260502205402 72 88 6.0 11.0 0.00 0.00 0.00 18 1020.8
20260502204502 73 68 5.0 8.0 0.00 0.00 0.00 18 1020.9
20260502203602 72 113 4.0 8.0 0.00 0.00 0.00 17 1021.0
20260502202702 72 69 3.0 9.0 0.00 0.00 0.00 18 1021.1
20260502201803 72 86 5.0 8.0 0.00 0.00 0.00 17 1021.3
20260502200902 71 75 4.0 9.0 0.00 0.00 0.00 19 1021.4
20260502200003 71 105 5.0 9.0 0.00 0.00 0.00 18 1021.5
20260502194502 70 125 4.0 9.0 0.00 0.00 0.00 19 1021.7
20260502193603 70 109 4.0 9.0 0.00 0.00 0.00 18 1021.9
20260502192702 70 123 3.0 8.0 0.00 0.00 0.00 19 1021.9